This is the latest recevied weather packets stored in our database for station/object N6HGA-1. If no packets are shown the sender has not sent any weather packets the latest 1 day(s).
| Time | Temp. | Humidity | Pressure | Rain* | Wind** | Luminosity | Snow |
|---|---|---|---|---|---|---|---|
| 1778101782 | 25.56° C | 35% | - | 0 mm | - | - | - |
| 1778101178 | 25° C | 35% | - | 0 mm | - | - | - |
| 1778100869 | 25° C | 35% | - | 0 mm | - | - | - |
| 1778100264 | 25° C | 36% | - | 0 mm | - | - | - |
| 1778099362 | 25.56° C | 34% | - | 0 mm | - | - | - |
| 1778098752 | 25° C | 36% | - | 0 mm | - | - | - |
| 1778096945 | 24.44° C | 37% | - | 0 mm | - | - | - |
| 1778095738 | 23.33° C | 58% | - | 0 mm | - | - | - |
| 1778094220 | 22.22° C | 60% | - | 0 mm | - | - | - |
| 1778093314 | 22.22° C | 61% | - | 0 mm | - | - | - |
| 1778092412 | 21.11° C | 63% | - | 0 mm | - | - | - |
| 1778091511 | 20.56° C | 55% | - | 0 mm | - | - | - |
| 1778090909 | 20.56° C | 55% | - | 0 mm | - | - | - |
| 1778090303 | 20° C | 51% | - | 0 mm | - | - | - |
| 1778090002 | 20° C | 54% | - | 0 mm | - | - | - |
| 1778089693 | 19.44° C | 51% | - | 0 mm | - | - | - |
| 1778088186 | 18.89° C | 64% | - | 0 mm | - | - | - |
| 1778086984 | 18.33° C | 64% | - | 0 mm | - | - | - |
| 1778086682 | 18.33° C | 65% | - | 0 mm | - | - | - |
| 1778086380 | 17.78° C | 64% | - | 0 mm | - | - | - |
| 1778086079 | 17.78° C | 62% | - | 0 mm | - | - | - |
| 1778085779 | 17.22° C | 63% | - | 0 mm | - | - | - |
| 1778084874 | 17.22° C | 63% | - | 0 mm | - | - | - |
| 1778083971 | 16.67° C | 65% | - | 0 mm | - | - | - |
| 1778083366 | 17.22° C | 64% | - | 0 mm | - | - | - |
* Rain since midnight (hover to see other rain measurements)
** Current wind speed in m/s (hover to see current wind gust speed)